Regional Weather Roundup
Issued by NWS

Home | Current Version | Previous Version | Graphics & Text | Print | Product List | Glossary On
Versions: 1 2 3 4 5 6 7 8 9 10 11 12 13 14 15 16 17 18 19 20 21 22 23 24 25 26 27 28 29 30 31 32 33 34 35 36 37 38 39 40 41 42 43 44 45 46 47 48 49 50
000
ASUS43 KTOP 191208
RWRKS

WEATHER ROUNDUP FOR KANSAS
NATIONAL WEATHER SERVICE GOODLAND KS
600 AM CST SUN FEB 19 2017

NOTE:  "FAIR" INDICATES FEW OR NO CLOUDS BELOW 12,000 FEET WITH NO
SIGNIFICANT WEATHER AND/OR OBSTRUCTIONS TO VISIBILITY.

KSZ001>006-013>018-027>032-041>047-191300-
NORTHWEST KANSAS

CITY           SKY/WX    TMP DP  RH WIND       PRES   REMARKS
GOODLAND       CLOUDY    45  35  68 S16       29.69S
6HR MIN TEMP:  45; 6HR MAX TEMP:  48;

HAYS           LGT RAIN  39  38  96 E7        29.83S VSB 1/4
HILL CITY      CLOUDY    46  44  93 CALM      29.80S
6HR MIN TEMP:  45; 6HR MAX TEMP:  52;

RUSSELL        PTCLDY    44  44 100 S7        29.82R FOG
6HR MIN TEMP:  44; 6HR MAX TEMP:  50;

$$

KSZ061>065-074>080-084>089-191300-
SOUTHWEST KANSAS

CITY           SKY/WX    TMP DP  RH WIND       PRES   REMARKS
DODGE CITY     CLEAR     44  43  96 S10       29.83R FOG
6HR MIN TEMP:  42; 6HR MAX TEMP:  49;

ELKHART          N/A     43  35  73 S9          N/A
GARDEN CITY    FOG       41  41 100 S7        29.81R VSB 1/4
6HR MIN TEMP:  38; 6HR MAX TEMP:  44;

GREAT BEND     MOCLDY    44  43  96 S9        29.85R FOG
LIBERAL        CLOUDY    48  45  87 S13G18    29.81S
PRATT          FOG       43  42  99 SE5       29.86S VSB 1/4
6HR MIN TEMP:  41; 6HR MAX TEMP:  49;

$$

KSZ066>073-081>083-090>101-191300-
SOUTHEAST KANSAS

CITY           SKY/WX    TMP DP  RH WIND       PRES   REMARKS
CHANUTE        FOG       43  42  97 S5        29.95R VSB 1/4
6HR MIN TEMP:  38; 6HR MAX TEMP:  47;

COFFEYVILLE    FOG       38  38 100 E3        29.95R VSB 1/2
6HR MIN TEMP:  36; 6HR MAX TEMP:  45;

HUTCHINSON     FOG       45  45 100 S6        29.88R VSB 1/4
6HR MIN TEMP:  42; 6HR MAX TEMP:  50;

MEDICINE LODGE   N/A     44  44 100 E6        29.86R
NEWTON         FOG       42  42 100 SE9       29.88S VSB 1/4
PARSONS        FOG       39  39 100 E3        29.95S VSB 1/2
6HR MIN TEMP:  36; 6HR MAX TEMP:  44;

WICHITA INTL   MOCLDY    44  44 100 S3        29.88R FOG
6HR MIN TEMP:  42; 6HR MAX TEMP:  50;

WICHITA JABRA  FOG       46  46 100 S5        29.88S VSB 1/2
6HR MIN TEMP:  41; 6HR MAX TEMP:  50;

WICHITA MCCONL FOG       45  45 100 S3        29.88R VSB 1/2
WINFIELD       PTCLDY    47  46  97 SE6       29.89F
6HR MIN TEMP:  46; 6HR MAX TEMP:  51;

$$

KSZ007>012-019>026-033>040-048>060-102>105-191300-
NORTHEAST KANSAS

CITY           SKY/WX    TMP DP  RH WIND       PRES   REMARKS
CONCORDIA      MOCLDY    46  45  96 CALM      29.85R
6HR MIN TEMP:  45; 6HR MAX TEMP:  54;

EMPORIA        FOG       42  42 100 S9        29.92R VSB 1/4
6HR MIN TEMP:  37; 6HR MAX TEMP:  49;

LAWRENCE       FOG       38  38 100 E3        29.94R VSB<1/4
6HR MIN TEMP:  36; 6HR MAX TEMP:  54;

MANHATTAN      FOG       40  39  97 NE3       29.89S VSB 3/4
6HR MIN TEMP:  36; 6HR MAX TEMP:  52;

MARYSVILLE     PTCLDY    46  45  93 SE5       29.88S
OLATHE IND     FOG       43  43 100 S6        29.95R VSB 1/4
6HR MIN TEMP:  40; 6HR MAX TEMP:  47;

OLATHE EXE     FOG       43  43 100 S5        29.95R VSB 1/4
6HR MIN TEMP:  43; 6HR MAX TEMP:  52;

SALINA         PTCLDY    45  43  93 S6        29.86R FOG
6HR MIN TEMP:  42; 6HR MAX TEMP:  53;

TOPEKA BILLARD FOG       43  40  89 CALM      29.93R VSB 1/4
6HR MIN TEMP:  41; 6HR MAX TEMP:  56;

TOPEKA FORBES  FOG       43  43 100 SE6       29.92R VSB 1/2
6HR MIN TEMP:  44; 6HR MAX TEMP:  53;

$$




USA.gov is the U.S. government's official web portal to all federal, state and local government web resources and services.